Theta_e
311 311 312 312 312 312 312 312 312 313 313 313 313 313 313 313 314 314 314 314 314 315 315 315 315 315 315 315 315 315 314 307 306 305 305 307 318 321 327 325 329 327 325 315 311 305 303 305 304 307 306 306 304 304 306 305 302 300 293 290 288 289 290 292 294 294 296 295 297 298 299 298 297 299 302 302 319 326 327 329 332 336 334 335 338 341 342 344
311 311 311 311 312 312 312 312 312 312 312 312 312 313 313 313 313 314 314 314 314 314 315 314 315 315 315 314 315 315 311 306 303 304 304 314 325 325 326 327 329 328 323 307 306 306 300 301 302 305 304 302 306 301 305 299 303 295 291 290 289 290 293 296 296 297 296 296 298 298 298 299 299 299 301 299 298 324 325 328 331 330 333 337 339 340 341 341
311 311 311 311 311 311 312 312 312 312 312 312 312 312 313 313 313 314 314 314 314 314 314 315 314 314 314 314 314 314 309 304 304 297 301 320 322 325 329 330 329 329 310 305 306 308 302 301 302 303 303 301 301 301 303 298 300 296 293 288 291 294 295 298 298 299 298 298 298 297 298 298 299 299 303 299 302 322 322 322 326 328 329 333 336 339 339 336
310 310 311 311 311 311 311 311 311 312 312 312 312 312 312 313 313 313 313 313 314 314 314 314 314 314 314 314 315 311 307 304 296 299 306 330 325 324 329 330 330 327 309 306 308 308 309 308 304 304 303 301 301 303 299 299 299 294 293 290 292 295 295 298 299 298 299 300 299 299 298 297 299 299 302 298 296 312 319 326 328 328 329 333 336 337 337 331
310 310 310 310 311 311 311 311 311 311 311 312 312 312 312 312 313 313 313 313 313 313 313 313 313 314 314 314 313 308 304 291 294 311 316 332 331 326 330 329 331 319 308 306 306 306 306 304 307 304 303 297 300 300 297 299 300 297 294 297 296 296 295 298 299 299 298 298 297 297 296 298 299 301 299 299 297 293 317 324 330 332 333 333 334 336 335 330
310 310 310 310 310 311 311 311 311 311 311 311 311 311 312 312 312 312 313 313 313 313 313 313 313 313 314 313 310 306 295 282 303 306 334 331 330 328 329 330 335 315 308 307 303 304 303 304 303 302 299 298 295 295 294 299 300 292 295 295 297 297 297 299 300 300 298 299 297 297 299 299 297 298 299 301 298 298 311 327 332 335 335 336 337 336 332 329
309 310 310 310 310 310 310 311 311 311 311 311 311 311 311 312 312 312 312 312 313 312 313 313 313 313 312 312 307 305 295 293 302 306 332 333 330 329 333 333 328 310 307 304 303 302 303 304 305 302 300 298 297 296 299 299 299 296 293 294 297 297 297 299 298 298 296 297 297 299 299 299 298 296 300 299 299 300 322 329 333 335 336 336 335 334 331 330
310 310 309 309 310 310 310 310 311 311 311 311 311 311 311 311 312 312 312 312 312 312 312 312 312 313 312 306 303 298 298 298 304 307 334 332 330 330 328 319 314 309 305 303 302 301 304 304 303 303 298 296 295 298 300 298 297 295 294 296 297 297 298 298 296 296 297 296 296 299 298 296 296 297 301 299 300 323 325 329 332 334 334 334 334 332 330 330
309 309 309 309 309 309 310 310 310 310 310 311 310 311 311 311 311 311 312 312 312 312 312 312 312 312 312 306 300 290 292 306 308 313 331 324 323 321 312 309 309 308 304 303 303 303 306 304 305 304 296 297 301 298 298 296 290 294 296 297 297 297 298 296 296 296 297 299 298 297 296 295 296 299 297 299 299 324 326 328 330 332 332 332 333 332 330 330
309 309 309 309 309 309 309 310 310 310 310 310 310 310 311 311 311 311 311 311 312 312 312 312 313 312 308 303 299 287 295 310 312 320 323 319 322 318 313 310 308 307 305 304 306 306 306 305 305 304 303 300 301 298 299 296 291 295 296 297 297 297 297 298 296 297 297 299 296 297 295 297 297 299 291 295 301 325 326 326 329 331 330 331 332 331 331 330
308 308 309 309 309 309 309 309 310 310 310 310 310 310 310 310 311 311 311 311 311 311 311 312 313 311 304 305 294 287 305 311 320 322 320 320 319 315 312 310 307 306 306 305 307 309 310 309 310 307 301 297 297 294 295 295 298 297 297 296 295 296 296 297 298 297 298 298 296 296 296 295 296 297 294 297 302 326 324 325 328 328 329 330 331 330 331 331
309 308 308 308 309 309 309 309 309 310 310 310 310 310 310 310 310 310 311 311 311 311 311 312 313 309 305 302 295 293 308 310 317 320 323 321 316 315 315 309 306 306 307 305 308 311 311 311 310 304 294 300 293 296 294 298 298 297 296 293 292 293 295 295 296 298 298 297 298 298 296 294 295 295 295 297 308 324 324 324 325 327 328 330 331 331 330 330
309 309 309 308 308 309 309 309 309 309 310 310 309 309 310 310 310 310 311 311 312 312 312 313 312 308 303 291 297 304 306 306 305 305 310 321 314 314 312 307 306 306 310 309 308 309 309 308 306 299 299 298 295 292 296 299 297 298 296 292 292 290 290 295 297 300 298 298 298 298 286 288 292 295 297 298 304 321 321 322 323 324 327 329 330 331 330 330
309 309 308 308 308 308 309 309 309 309 309 309 309 309 309 309 310 311 311 311 312 312 312 313 311 307 302 292 303 309 310 308 307 306 304 312 312 307 309 307 306 306 309 307 307 308 308 304 303 301 302 298 295 299 297 295 297 294 293 291 289 286 286 295 297 296 295 297 298 298 288 289 291 294 296 296 297 318 319 321 322 322 325 327 329 330 330 330
308 308 308 308 308 308 309 309 309 309 309 309 309 309 309 309 310 311 311 311 311 312 312 314 310 303 296 295 307 311 324 318 309 307 308 309 309 304 304 306 305 305 307 308 307 308 308 307 302 299 296 300 299 296 291 290 291 292 289 283 285 286 289 293 297 296 294 296 298 297 289 290 294 294 297 297 297 305 317 319 321 321 323 325 327 327 328 329
309 308 309 308 308 308 308 308 308 308 308 309 309 308 309 309 310 310 311 311 312 312 311 307 305 304 296 288 298 316 308 313 311 314 312 311 309 304 305 305 306 305 305 304 308 309 307 305 298 296 297 297 295 290 287 286 286 289 287 284 288 286 288 291 293 297 297 297 297 297 287 288 292 295 297 298 297 296 312 318 319 320 321 323 324 325 326 327
309 309 308 308 307 308 308 308 308 308 308 308 308 308 308 309 309 310 311 311 310 310 308 304 306 306 292 302 311 305 303 305 306 308 310 311 309 307 306 304 304 304 304 306 306 306 304 302 299 300 297 291 289 289 284 281 282 283 288 285 288 287 288 287 292 294 296 295 291 295 292 291 293 294 296 296 297 296 310 317 318 319 319 321 322 324 325 326
308 308 307 307 307 307 307 307 307 308 308 308 307 307 305 308 310 309 309 310 310 309 308 310 306 300 296 304 298 301 306 305 304 304 309 311 310 308 306 304 304 303 304 303 304 302 301 297 295 289 290 293 291 286 283 279 284 283 285 286 286 288 289 289 288 291 294 294 293 292 292 293 294 294 294 295 298 298 305 316 316 317 317 318 319 322 322 323
308 308 308 307 307 307 307 307 307 307 307 308 307 307 308 310 310 307 304 306 302 297 292 297 297 286 290 299 302 304 306 307 306 303 302 308 309 308 307 307 304 301 298 297 295 300 297 294 294 289 286 287 287 288 285 287 288 288 289 287 287 286 287 288 293 296 295 291 291 291 291 292 294 294 294 296 299 307 312 315 316 316 315 317 318 319 319 320
307 308 308 307 307 307 307 307 307 307 307 305 302 301 303 301 300 301 303 304 300 299 297 300 300 302 300 299 302 308 310 307 301 301 302 305 307 305 303 304 303 300 295 292 295 297 296 289 284 285 286 288 290 290 290 291 291 290 290 290 287 288 289 292 294 297 295 292 291 291 292 292 294 293 293 295 296 298 300 310 313 314 314 316 317 317 317 317
306 307 307 307 307 307 307 307 307 307 307 304 301 296 294 299 294 295 298 300 303 303 300 302 301 300 299 302 303 303 300 301 302 300 301 307 306 303 299 300 296 294 293 295 294 300 297 288 287 288 290 290 291 292 292 291 292 290 289 289 287 289 288 293 294 297 297 293 289 290 291 291 292 294 295 296 296 296 296 301 308 312 315 316 317 316 316 318
306 306 307 307 307 307 307 307 307 307 307 303 299 294 296 298 302 303 298 291 301 304 303 302 304 301 305 304 306 306 304 299 298 298 301 305 301 299 296 297 293 291 294 295 295 292 289 287 291 292 293 292 293 292 292 291 291 291 288 287 287 287 290 294 295 295 296 294 290 291 290 291 294 295 296 297 297 296 297 298 303 312 314 315 316 316 316 315
305 306 307 307 306 306 306 307 307 307 301 297 295 295 294 300 304 303 299 294 294 302 303 302 300 301 301 306 306 308 300 297 295 298 298 304 298 300 296 294 292 292 293 294 290 288 286 289 293 295 293 292 291 291 291 292 293 288 288 287 285 289 289 285 291 294 295 295 292 292 290 290 293 293 294 295 297 298 297 297 297 311 314 315 316 316 316 315
306 305 306 306 306 306 306 306 306 302 299 299 297 296 301 303 301 299 296 293 291 297 302 304 304 303 302 301 307 306 301 300 299 296 301 301 296 297 295 295 290 291 290 292 292 289 290 293 296 295 293 292 291 291 291 288 286 290 290 287 286 290 290 289 289 292 293 293 295 291 285 284 288 293 294 296 296 298 297 297 298 307 315 317 317 317 316 315
306 305 305 306 306 306 305 306 299 300 302 300 298 302 303 303 302 300 297 294 294 294 303 301 307 305 305 311 311 303 301 301 301 300 301 302 296 295 293 297 292 288 290 293 293 291 292 297 297 293 293 292 291 289 290 290 285 288 292 292 292 292 292 291 293 290 285 284 290 292 281 281 285 289 291 293 294 296 296 298 300 297 311 313 313 314 315 316
305 305 305 305 306 305 306 298 300 300 298 296 301 306 306 306 305 302 298 291 285 295 297 291 305 297 310 302 307 303 300 295 301 301 303 302 303 298 296 292 293 288 291 291 292 291 293 297 297 294 292 292 291 290 291 292 285 286 288 294 293 293 293 292 291 287 281 282 289 294 283 277 283 287 290 292 292 298 305 305 307 308 300 310 313 313 313 314
305 304 305 305 305 305 298 295 301 300 295 299 304 306 305 307 308 304 293 285 282 294 290 296 296 296 303 301 303 301 286 290 301 301 301 304 299 301 292 289 293 295 295 296 292 287 296 293 294 294 293 291 289 287 291 292 288 285 292 293 294 293 291 291 291 288 282 289 290 290 286 281 280 284 289 292 294 301 303 306 308 311 313 313 312 313 312 313
305 304 304 305 305 304 299 300 298 295 296 302 306 306 306 307 308 306 292 279 278 297 290 292 297 305 301 302 302 295 294 297 293 297 302 304 303 297 295 290 291 291 294 292 282 291 294 292 292 291 291 290 288 291 292 293 289 287 293 295 292 293 291 291 289 286 286 285 281 284 290 282 279 283 290 291 291 300 301 305 309 312 314 315 315 316 318 319
305 304 304 304 304 305 303 300 298 295 302 305 304 305 306 306 303 296 286 279 294 293 305 292 306 300 299 300 297 297 296 298 291 296 301 304 304 297 291 293 293 293 294 292 287 290 294 295 295 294 291 288 293 294 294 295 290 293 294 295 294 293 292 291 287 286 284 281 278 282 288 281 277 282 290 291 294 298 300 304 309 312 314 314 315 316 319 321
305 304 304 304 303 301 300 303 298 302 304 305 305 304 305 303 296 286 279 276 299 288 296 296 295 292 296 293 293 296 293 295 297 297 300 299 300 301 299 300 295 293 291 294 292 292 295 300 300 295 292 293 294 293 295 295 293 295 294 293 291 288 288 288 285 284 282 277 277 284 289 284 278 286 292 293 295 295 300 305 309 312 314 315 315 316 317 319
304 304 304 304 298 299 299 294 299 304 305 304 303 303 301 297 287 281 276 284 296 293 297 293 292 296 292 291 289 294 293 294 295 296 294 299 296 298 296 294 296 289 286 288 289 292 294 294 294 294 299 297 296 294 296 297 295 293 291 288 288 284 283 283 281 281 278 272 278 284 287 286 279 280 294 300 305 305 304 305 308 311 313 314 313 314 316 318
304 304 304 302 302 303 295 294 304 303 303 303 303 300 294 284 287 281 280 300 285 290 290 289 293 293 292 294 292 291 291 293 294 293 292 292 291 291 289 284 288 282 282 282 284 290 290 290 290 294 302 297 294 291 289 294 293 290 288 286 282 276 276 276 276 278 275 275 281 285 287 284 279 288 296 302 304 306 307 307 307 309 311 314 315 315 315 316
304 304 305 303 303 300 300 302 303 303 303 302 301 297 289 280 276 282 284 290 285 294 291 295 292 293 293 292 290 293 294 288 293 291 295 294 290 291 291 290 290 286 279 283 284 284 286 290 292 293 296 298 294 287 287 288 289 287 286 281 280 275 274 270 273 273 276 281 285 286 288 279 286 294 300 302 305 308 308 309 310 310 310 312 314 315 315 315
304 304 300 302 301 301 302 304 303 303 301 301 296 293 288 279 278 297 288 291 290 297 296 294 294 293 293 288 290 292 287 293 292 290 293 289 289 286 288 290 292 290 290 286 282 283 279 280 286 291 289 295 294 291 291 286 287 289 288 287 282 277 277 272 275 272 274 278 279 288 284 279 285 289 303 306 308 308 309 308 309 310 310 311 312 313 314 315
304 303 301 301 301 302 302 303 302 302 300 297 293 287 280 280 286 286 287 289 291 294 292 296 292 290 289 290 292 294 292 287 293 290 289 288 285 286 286 287 291 291 288 283 286 283 285 281 287 293 293 294 294 295 294 291 290 290 290 289 284 282 280 277 275 277 278 279 279 283 280 288 291 300 303 306 307 307 308 308 310 310 311 311 311 311 312 313
302 300 301 299 300 303 303 303 302 302 297 295 288 283 282 287 285 292 290 294 293 290 290 293 291 287 285 286 291 290 295 293 293 290 289 289 289 288 290 290 290 292 287 282 283 282 286 282 291 294 295 294 293 296 296 294 283 287 289 283 289 291 289 280 279 282 276 277 276 278 286 291 295 297 303 304 304 304 306 308 309 308 309 311 311 311 311 312
298 300 296 301 302 306 304 304 303 300 298 295 287 282 288 291 295 294 296 292 292 291 288 283 284 283 284 284 286 288 291 294 293 290 284 290 286 290 290 291 293 291 292 290 286 287 281 281 290 292 290 294 295 297 296 296 293 288 283 287 292 294 291 284 276 277 275 273 272 281 281 284 283 282 301 302 301 302 304 306 307 307 307 306 307 308 308 308
297 297 299 300 304 307 305 304 302 300 298 295 285 291 297 292 298 296 297 293 292 291 286 283 286 288 284 284 283 287 290 289 290 290 287 289 288 300 295 294 295 293 292 294 288 287 289 281 284 290 292 295 299 295 292 296 296 291 289 292 288 281 282 282 279 273 272 273 272 279 284 286 290 289 299 299 300 301 303 305 305 305 305 305 305 305 306 306
298 296 295 304 309 307 305 305 303 300 294 289 283 286 295 296 299 297 296 292 294 291 285 288 285 289 287 283 286 288 291 286 291 288 286 289 286 297 296 298 297 300 297 293 287 287 288 280 283 290 292 295 294 292 284 288 293 295 295 292 291 287 281 279 280 278 278 272 273 276 281 278 293 296 300 300 301 302 304 304 303 304 305 304 304 303 303 303
295 295 297 311 310 308 306 305 301 297 291 284 286 290 296 293 296 297 296 295 291 289 290 289 290 285 288 289 289 285 291 290 290 287 289 293 293 300 297 300 298 299 299 297 293 292 285 285 279 285 292 293 287 291 286 287 286 288 288 285 289 288 290 287 288 282 278 272 271 273 276 284 295 302 301 302 302 304 304 303 303 303 303 303 302 302 302 302
299 295 297 310 309 307 306 302 295 290 288 289 292 291 292 292 295 295 297 295 292 295 290 291 289 285 289 286 286 290 288 288 290 289 291 292 291 285 299 299 300 298 298 296 296 291 284 284 282 284 287 284 290 295 293 292 291 287 285 286 288 285 284 281 278 285 284 280 276 273 274 289 296 302 301 301 303 304 305 304 303 303 302 301 301 300 300 300
296 292 297 309 312 307 302 292 291 293 290 287 286 291 290 300 294 294 295 294 294 290 294 291 292 291 289 289 290 288 288 287 291 291 293 289 296 295 299 301 300 300 294 288 291 299 290 286 283 282 282 286 295 299 301 303 302 299 297 293 294 285 282 277 278 278 282 285 285 284 285 285 300 302 301 301 301 300 301 303 303 301 300 299 299 299 300 300
296 295 311 312 312 306 296 288 291 289 288 290 295 294 295 294 293 294 292 293 291 292 292 292 293 289 291 289 290 288 290 288 292 290 294 294 295 298 302 303 302 301 297 291 297 295 310 281 282 283 286 291 295 300 300 300 300 297 297 297 295 291 292 283 280 281 281 281 279 280 283 287 299 302 301 300 300 299 300 299 300 299 298 298 298 298 298 298
300 295 297 309 313 305 291 282 283 282 287 292 293 293 296 296 293 292 292 294 291 291 291 292 291 292 291 291 290 288 291 282 293 292 292 295 293 301 302 303 305 300 298 294 292 297 285 286 283 278 278 280 285 291 292 296 296 291 290 293 296 295 295 291 289 285 281 284 281 280 280 286 296 301 299 299 297 296 296 297 298 296 296 296 296 296 297 297
298 302 302 304 309 302 290 290 288 282 289 292 293 292 293 295 294 293 294 293 294 292 291 290 292 293 291 293 290 293 294 289 286 295 295 295 294 300 301 302 304 302 304 306 310 300 289 288 282 278 275 274 274 278 280 283 288 289 294 294 295 295 292 291 285 281 280 283 286 284 284 291 296 297 296 295 295 294 295 296 297 296 295 294 295 295 295 295
296 285 294 298 301 301 298 300 298 294 289 290 285 288 294 291 293 293 293 294 293 293 291 294 292 292 290 290 288 290 292 296 290 288 290 291 294 298 299 301 303 303 308 309 308 298 290 290 285 279 276 278 282 287 292 290 290 287 290 291 291 293 293 288 283 279 279 283 286 290 290 289 291 293 293 293 293 292 292 293 293 294 294 294 295 295 294 294
299 288 286 287 296 296 293 295 295 295 286 290 283 290 289 291 293 292 293 289 293 293 293 292 292 289 289 289 288 287 291 292 294 294 293 292 295 296 298 299 302 307 309 305 307 292 287 286 290 290 290 290 292 292 294 294 290 290 289 289 291 291 292 290 282 283 285 286 284 291 292 288 289 291 291 291 292 292 292 292 292 293 293 293 294 294 295 294
290 292 297 295 290 284 288 288 295 294 296 296 288 292 290 290 288 284 291 292 293 293 288 290 291 291 291 290 288 283 288 290 290 286 294 293 292 295 294 298 298 306 305 300 303 294 286 283 292 291 291 293 293 292 292 291 290 290 289 289 289 290 291 289 290 291 287 280 284 290 290 287 287 289 291 291 292 291 291 291 292 293 294 293 293 292 292 293
299 295 297 301 289 292 292 293 296 295 293 294 288 291 289 290 288 290 289 290 292 291 291 281 288 290 291 292 287 285 286 280 283 290 290 290 290 288 289 292 296 297 298 297 299 298 291 286 292 293 291 291 291 291 291 289 288 288 289 290 290 290 289 290 290 291 290 288 290 288 287 286 288 289 290 291 293 292 292 293 293 292 292 292 292 291 291 292
295 292 292 298 296 294 294 294 294 294 290 295 286 289 292 290 289 291 292 289 284 289 292 288 289 291 292 293 292 287 290 289 289 283 291 289 289 287 284 288 288 292 294 294 299 297 293 287 294 291 287 288 290 290 289 288 287 286 288 289 289 289 289 290 290 291 291 288 288 287 285 284 289 291 291 292 293 294 293 291 291 292 292 292 291 290 291 291
302 304 303 296 291 292 295 294 292 291 288 287 283 290 291 291 290 293 291 294 290 289 291 288 291 291 292 290 290 289 292 292 291 293 294 290 287 292 287 289 292 287 288 290 292 291 292 288 294 291 285 285 288 288 287 287 287 286 286 287 287 286 285 286 286 289 289 286 287 287 284 283 288 291 291 291 291 290 289 290 290 290 291 291 290 290 290 290
305 307 305 297 288 295 292 291 291 286 284 284 289 290 290 289 292 291 284 292 293 293 293 291 292 290 289 289 288 291 293 293 293 294 293 293 295 292 292 294 295 292 291 292 291 288 288 285 284 285 285 284 288 288 287 286 285 282 283 286 289 288 288 289 289 290 289 290 286 283 283 288 289 291 288 288 289 289 288 289 289 290 290 290 290 290 290 290
Wind_Speed
11 10 11 11 11 11 10 11 11 11 11 11 12 12 12 13 13 13 13 12 12 12 13 13 13 13 13 14 14 14 13 6 8 3 3 16 7 13 8 9 7 14 12 1 1 3 0 1 2 2 0 1 3 1 4 3 3 2 2 3 5 5 4 4 2 1 1 0 4 4 0 5 3 6 3 4 9 8 5 6 3 8 6 3 6 15 16 13
11 11 11 11 11 11 11 11 11 12 12 12 12 12 13 13 13 13 13 13 12 13 13 13 14 13 14 14 14 14 10 3 7 9 19 6 12 13 13 14 9 11 12 3 4 4 4 3 4 3 2 1 1 2 2 2 3 4 2 3 9 5 5 2 2 8 1 0 2 3 3 2 1 3 2 2 2 5 6 4 5 8 9 11 12 14 15 12
12 12 11 12 12 12 12 12 12 12 12 12 12 13 13 13 13 13 13 13 13 13 13 14 14 14 13 13 14 14 7 4 3 11 17 15 22 16 13 12 11 15 12 5 5 6 7 7 5 4 2 1 2 4 1 4 2 5 4 5 8 3 4 5 2 7 7 3 3 4 3 3 2 2 1 2 2 6 8 5 2 5 8 9 10 13 13 12
11 12 12 12 13 12 12 12 13 13 13 13 13 13 13 14 14 14 14 14 14 13 13 14 14 14 14 14 13 9 1 1 3 6 3 5 13 20 15 14 14 15 8 2 5 6 1 1 1 4 2 3 3 2 2 5 1 2 4 6 4 5 3 6 2 6 5 2 1 1 2 5 4 2 0 5 5 0 2 4 9 10 12 12 12 13 12 11
12 12 12 13 13 13 13 13 13 13 13 13 13 13 13 14 14 14 14 15 14 14 13 14 15 14 14 14 14 2 1 3 3 2 3 10 10 17 15 14 15 10 9 2 3 3 1 0 0 2 2 3 2 0 4 4 4 1 6 7 5 4 3 9 5 7 3 3 4 2 4 1 3 1 4 4 1 5 7 8 6 12 13 16 15 14 11 11
12 13 13 12 13 14 14 14 14 14 14 14 14 14 13 13 14 14 15 15 15 14 14 14 14 14 15 16 6 1 1 1 2 5 5 7 10 16 14 14 12 7 5 1 4 2 3 3 3 1 3 3 3 6 4 6 3 5 7 5 7 7 6 6 2 3 2 1 2 1 1 1 3 3 2 1 6 2 7 7 10 13 14 14 15 15 13 13
12 13 13 13 14 14 14 14 14 14 14 14 14 14 14 14 14 14 15 15 15 14 14 13 13 14 14 13 2 2 2 8 5 6 7 7 6 12 10 9 9 6 5 4 4 3 5 3 5 4 3 5 5 6 9 2 4 7 9 4 8 6 8 9 3 8 5 9 4 3 2 1 0 2 1 4 4 5 5 4 7 8 10 14 14 14 17 16
14 14 14 13 14 14 14 14 15 15 15 15 15 14 14 14 14 14 15 15 15 15 14 13 13 12 11 4 0 2 2 8 15 6 6 8 6 7 9 5 7 6 8 9 9 7 4 5 7 2 4 6 4 8 3 2 4 7 10 8 6 5 7 8 5 5 3 5 4 4 3 4 4 2 0 6 4 2 5 6 6 10 11 11 12 12 11 12
14 14 15 14 14 14 15 14 15 15 15 15 15 15 15 14 14 14 15 15 15 14 14 13 13 10 6 1 3 1 6 9 6 5 9 8 7 7 9 5 5 9 6 5 6 5 3 5 4 5 5 7 4 4 1 2 7 5 11 6 4 5 6 5 3 6 8 4 4 3 2 3 6 1 3 8 5 4 8 7 7 10 11 12 12 12 12 12
13 14 15 15 14 15 15 15 15 15 15 15 16 16 15 15 15 15 15 15 15 14 14 13 10 7 3 1 1 1 7 7 4 8 11 10 8 7 5 2 9 7 6 8 5 6 8 6 6 4 5 4 3 5 3 3 6 3 4 6 8 6 5 3 3 1 1 2 4 3 3 2 2 4 5 5 2 8 7 8 6 10 10 9 8 8 9 11
14 14 15 15 15 15 16 16 15 16 16 16 16 16 17 16 15 15 15 15 14 14 12 11 8 5 1 1 4 6 7 3 3 2 10 11 10 8 10 6 11 9 7 6 9 10 7 7 6 3 2 4 1 4 2 3 2 6 8 6 4 5 4 4 2 4 0 2 3 4 2 3 3 2 6 8 2 11 11 9 8 8 9 8 9 9 8 8
15 15 15 16 15 16 16 16 16 16 17 17 17 17 17 16 16 15 15 15 15 13 11 10 8 2 2 2 5 9 3 3 4 5 1 6 8 12 9 8 12 11 9 9 10 8 10 9 3 1 3 2 1 2 4 2 4 5 5 2 5 4 4 2 3 2 2 2 4 2 2 5 2 4 6 8 6 7 12 10 7 7 7 8 7 8 7 8
15 16 15 15 16 16 17 17 16 17 17 17 17 17 17 17 17 16 15 15 12 12 12 9 4 3 1 1 11 12 7 8 7 7 2 5 4 2 4 7 11 8 10 9 10 6 4 5 3 6 4 1 1 1 3 3 4 3 1 4 3 5 6 8 1 1 1 3 5 4 2 9 7 9 8 7 8 6 9 9 8 7 8 8 7 8 8 5
15 15 16 16 16 16 17 17 17 17 18 18 18 18 18 18 18 17 16 15 16 13 10 8 3 1 1 7 6 3 5 7 8 8 10 7 6 4 6 5 9 7 5 4 5 4 5 3 7 6 2 2 2 2 4 4 2 1 3 2 1 3 6 3 2 1 4 4 7 6 4 10 7 10 11 8 2 12 11 11 11 8 8 7 7 7 8 7
15 15 16 16 17 17 17 18 18 18 18 19 19 18 18 20 19 17 17 14 12 10 8 7 3 2 1 9 7 11 17 7 8 11 8 7 9 3 5 6 7 8 8 9 4 3 5 5 1 2 1 2 1 2 5 3 2 2 2 2 3 3 9 2 3 4 8 1 7 6 5 10 10 8 10 7 5 11 11 12 10 10 9 9 7 6 5 6
15 15 16 16 16 17 17 18 18 18 18 19 20 20 20 20 19 18 16 13 14 12 6 4 3 2 2 8 6 9 5 4 7 13 11 10 11 6 5 8 5 7 6 4 7 6 2 1 1 2 0 2 1 0 3 6 5 4 3 3 1 4 6 8 4 8 10 3 1 9 6 4 5 9 8 6 4 5 11 11 11 10 8 8 7 6 6 7
15 15 16 16 16 17 17 18 18 18 19 18 20 19 20 20 18 16 13 10 6 5 6 1 5 1 1 3 6 5 4 4 3 3 7 11 10 6 4 3 3 6 7 6 4 3 2 1 1 0 2 2 2 3 2 3 4 4 1 3 4 3 1 3 7 4 6 7 4 8 7 7 6 6 5 4 3 5 11 13 12 9 8 8 7 7 8 9
15 16 16 16 17 16 17 18 18 18 19 18 18 18 19 21 18 12 7 5 4 4 5 4 4 1 9 3 4 6 0 2 4 3 9 10 10 7 4 4 3 3 4 5 2 1 1 0 1 4 3 1 2 2 5 6 6 5 2 2 6 3 2 7 2 4 3 9 11 7 9 9 10 7 5 5 5 3 10 15 11 9 9 7 7 7 7 8
15 16 16 16 17 17 17 18 18 18 17 16 18 19 17 11 2 4 1 4 4 2 2 3 4 4 1 7 10 5 3 2 3 5 4 7 4 4 4 2 3 4 1 2 4 2 1 1 2 1 4 3 5 6 8 8 5 5 2 3 2 4 6 5 6 7 6 6 8 11 10 9 12 8 5 7 3 3 9 12 10 10 7 6 7 7 7 8
15 16 16 16 17 17 17 17 18 18 16 11 9 8 2 1 1 1 1 4 8 6 2 5 10 4 12 5 2 3 4 4 6 6 3 4 4 5 4 4 0 3 4 5 1 3 3 3 4 7 7 6 4 6 8 8 6 3 1 1 4 5 5 4 8 6 5 5 9 11 8 8 10 6 4 5 2 5 3 2 6 7 6 6 6 8 8 9
16 16 16 17 18 17 17 16 15 13 14 7 8 3 1 3 1 1 6 9 11 11 13 7 15 13 12 4 8 5 6 3 5 5 9 3 3 7 4 4 3 4 4 6 5 1 4 4 7 9 9 8 8 6 5 5 4 4 3 3 7 7 7 5 6 6 2 5 4 5 8 8 7 6 4 3 2 2 2 9 4 5 9 11 12 10 12 11
15 16 17 17 18 18 18 17 14 14 9 4 2 3 6 7 3 2 2 5 7 14 11 12 7 12 14 14 15 6 4 5 7 6 4 7 3 8 3 5 5 9 3 1 1 1 3 7 11 10 8 6 5 5 5 6 5 4 4 4 3 8 3 8 5 5 5 1 5 3 6 4 5 7 6 1 1 2 3 6 9 11 9 9 10 12 9 4
15 15 17 17 18 19 19 18 14 15 6 2 4 4 7 9 4 3 2 5 9 8 11 11 10 14 16 12 10 4 7 7 10 8 6 6 4 9 5 6 7 5 3 4 6 3 3 8 13 9 5 5 6 5 5 4 2 4 2 1 5 6 1 6 5 7 8 3 3 2 4 3 6 4 4 4 3 1 3 4 4 11 13 13 13 12 10 9
15 16 17 17 18 18 20 17 17 10 4 8 8 11 9 8 8 8 5 2 5 5 11 11 12 6 11 10 3 11 9 5 5 10 5 6 7 5 3 7 5 4 7 6 7 8 11 6 5 6 6 6 7 6 4 3 6 4 5 3 4 4 2 3 5 4 4 4 4 5 4 4 2 2 2 5 8 9 8 4 1 6 12 15 13 8 7 11
15 16 17 17 17 19 17 21 7 3 4 4 6 10 13 15 11 3 0 3 2 6 6 7 7 7 12 4 7 3 3 3 8 5 6 10 4 4 5 2 3 5 5 6 6 6 10 13 1 5 7 6 6 7 7 6 6 3 5 8 5 3 3 4 2 6 7 5 2 3 1 1 6 4 6 6 5 9 9 11 12 2 5 3 3 7 6 1
15 15 16 16 17 17 19 8 1 6 8 5 6 6 7 8 9 5 2 1 5 3 3 4 9 7 6 5 6 5 4 6 6 4 9 9 8 8 3 2 4 8 8 4 6 3 9 2 6 7 8 8 8 7 6 8 7 4 5 6 4 3 1 2 4 4 1 0 3 1 3 2 5 2 3 5 6 11 10 11 9 10 4 2 1 4 4 7
15 15 16 16 15 15 7 2 5 8 4 3 2 10 10 13 3 4 1 2 2 4 6 2 8 1 6 6 8 6 4 6 2 5 9 6 8 4 6 5 2 1 4 2 1 6 3 5 8 7 7 9 6 7 5 10 7 4 3 3 1 1 2 4 1 3 2 2 3 7 2 1 1 5 4 3 12 8 12 12 14 13 14 13 7 5 4 8
14 14 14 15 14 10 6 8 9 5 8 5 10 10 14 10 7 3 1 1 1 4 4 3 5 1 2 7 10 8 5 3 5 6 12 10 5 4 4 7 7 8 5 4 7 6 4 5 6 7 6 7 7 9 6 9 6 4 5 6 3 5 3 1 3 3 3 3 3 6 3 2 1 4 4 3 8 9 11 10 11 12 12 12 13 11 11 10
14 14 14 14 15 16 10 6 4 8 4 6 9 12 10 10 2 4 2 1 2 2 2 7 1 4 1 7 9 7 6 3 5 4 4 5 7 5 5 6 6 5 2 6 8 4 2 9 10 11 8 8 9 10 8 12 5 5 4 3 1 1 0 1 1 2 2 3 2 3 0 1 2 7 10 5 10 5 4 6 7 8 10 11 11 11 12 12
14 14 13 13 11 6 2 3 8 10 7 9 11 14 13 2 1 1 2 2 1 1 2 0 2 7 3 8 6 9 8 3 3 2 7 7 9 3 2 4 5 2 3 2 5 8 8 5 4 4 6 8 9 8 7 7 6 2 3 1 1 4 1 2 5 3 3 1 2 4 1 4 0 3 5 6 3 1 2 4 5 8 10 11 11 11 11 12
14 14 13 12 6 5 7 6 8 3 4 8 13 13 1 3 2 2 3 4 1 3 1 2 3 6 7 11 7 9 9 3 0 6 4 4 5 4 1 1 2 2 1 2 5 5 4 3 3 2 8 3 5 3 5 8 4 6 2 3 1 4 5 4 3 6 1 2 6 5 0 5 1 1 5 6 6 9 6 7 10 12 12 12 11 10 11 10
13 14 15 9 8 7 5 5 2 6 9 11 12 3 2 1 1 3 4 3 1 2 4 5 3 6 11 8 5 7 7 2 2 5 8 7 5 8 4 4 5 3 3 1 7 4 5 5 3 6 4 9 3 5 3 2 4 7 7 6 5 2 2 3 3 1 1 2 3 1 1 2 3 2 4 8 9 11 10 8 8 9 11 11 12 11 9 9
12 14 19 12 10 8 13 14 11 10 10 10 5 2 2 2 3 4 3 2 1 3 2 5 8 9 9 8 5 7 5 3 4 4 9 6 6 8 4 6 5 6 3 4 4 1 6 3 4 5 4 1 7 6 2 2 1 6 4 5 5 2 1 2 1 1 2 5 6 0 2 2 3 4 7 8 7 9 9 9 8 9 10 11 11 10 11 10
13 14 10 9 9 11 10 7 5 3 7 7 0 3 1 1 3 4 3 1 3 6 2 2 6 5 10 8 6 5 4 5 5 5 8 5 5 5 4 4 5 2 2 0 3 4 1 4 5 1 2 2 4 6 9 6 6 7 6 7 7 6 4 2 2 3 5 7 4 2 1 3 5 1 4 5 7 7 7 7 4 6 7 7 10 13 13 13
15 16 11 10 8 12 14 11 5 2 2 3 3 2 4 4 1 1 1 1 2 5 7 4 7 7 7 5 3 7 5 3 5 10 5 8 6 4 6 5 4 4 3 3 3 2 6 5 6 6 4 3 7 4 6 5 4 1 3 6 6 4 7 2 6 4 2 1 1 1 1 1 7 4 3 2 5 10 6 7 7 9 6 9 11 11 9 9
13 6 6 6 4 6 10 8 6 3 3 1 3 2 5 3 1 1 1 2 3 3 9 9 3 6 4 3 2 3 7 1 4 4 3 11 8 8 6 3 5 8 5 6 4 2 1 2 5 5 2 5 5 5 2 7 3 3 4 2 8 6 8 3 1 1 5 5 3 2 3 2 1 3 9 7 9 9 7 9 12 13 11 10 11 11 12 12
8 9 5 4 6 5 7 9 9 7 3 3 2 4 4 4 5 5 2 6 5 6 2 8 4 4 4 4 3 7 6 2 3 4 3 3 1 1 3 5 7 6 9 8 3 4 4 5 5 1 4 6 4 8 6 6 8 4 3 8 1 4 4 7 5 1 2 4 4 2 7 1 1 1 4 8 8 9 10 12 12 11 11 13 12 12 12 12
9 7 8 8 10 7 10 11 12 5 2 2 1 4 3 4 1 3 4 5 3 3 5 2 1 5 1 2 4 6 7 9 6 4 3 4 1 1 2 1 4 2 7 9 6 3 4 4 5 3 7 4 0 3 3 1 3 8 8 3 5 3 2 4 4 1 2 1 2 4 2 3 2 2 3 7 9 8 9 11 13 13 12 11 11 12 11 12
5 4 5 6 7 12 12 11 8 5 2 2 1 2 4 4 6 9 4 5 1 1 5 3 2 2 3 3 3 3 12 8 10 5 6 1 3 1 0 1 1 3 2 9 4 2 3 3 4 4 2 1 3 4 3 3 2 1 2 2 1 5 3 2 6 4 6 3 3 1 4 0 2 2 5 5 5 5 7 10 11 11 10 9 9 9 10 10
3 3 2 0 12 12 13 8 4 2 1 3 4 4 3 7 7 9 6 0 1 2 0 1 3 4 4 1 2 2 1 6 15 4 5 2 5 1 4 4 1 2 6 6 3 0 1 1 1 3 2 2 1 1 7 6 5 2 1 2 2 1 3 5 1 4 5 4 4 5 1 1 2 4 4 5 5 5 7 9 8 8 9 10 10 9 10 11
3 2 3 3 12 13 10 4 3 2 2 3 2 3 8 5 5 6 5 3 1 0 3 1 2 4 0 4 7 6 3 5 4 3 2 3 2 1 4 2 1 1 1 5 7 3 1 1 6 4 3 2 4 5 1 5 6 5 5 3 4 2 3 4 5 2 3 3 3 6 2 2 4 5 5 7 7 7 8 8 9 10 11 11 10 11 11 10
3 1 3 7 1 13 8 5 1 1 1 3 2 3 4 6 7 7 3 2 3 1 1 2 2 3 4 2 0 4 2 3 2 4 5 5 3 2 1 4 3 0 4 1 1 1 2 2 3 0 2 6 12 14 13 12 15 12 8 1 1 2 4 3 2 3 4 2 5 5 8 1 1 3 6 7 8 10 11 8 10 11 11 10 10 10 10 11
1 1 1 6 5 5 5 1 1 1 2 3 5 10 11 7 4 4 2 3 3 2 2 3 1 2 3 3 3 3 5 3 3 5 3 4 6 4 3 3 2 5 5 2 1 1 5 2 2 1 4 1 1 15 19 14 6 8 8 6 5 4 1 3 3 3 6 2 3 2 4 2 2 5 6 8 9 9 9 11 10 10 9 10 12 12 13 13
2 3 5 3 1 2 2 2 2 3 3 6 4 9 7 8 3 4 3 4 3 1 2 1 4 3 1 3 4 4 6 3 3 5 4 2 4 6 6 6 4 2 2 1 2 2 1 1 3 1 1 1 2 3 7 7 8 5 2 5 5 2 4 2 3 2 5 1 4 7 5 4 2 3 6 8 10 11 11 11 10 10 8 8 10 10 9 10
2 1 1 4 2 2 2 3 2 1 2 2 2 4 4 2 2 3 1 4 4 0 1 3 1 1 2 1 3 6 8 4 1 5 4 3 2 2 7 6 7 5 4 2 4 2 6 0 1 2 5 5 3 4 2 2 3 1 2 9 10 10 6 4 2 2 3 1 4 6 4 3 5 6 9 10 9 9 10 9 9 9 8 8 9 9 9 9
1 0 1 1 1 1 3 1 1 1 2 2 2 5 2 1 2 4 5 2 3 2 3 1 3 4 5 6 4 6 8 7 4 0 3 3 2 3 3 7 7 3 4 8 5 4 2 2 3 2 5 5 3 3 1 4 3 5 2 12 9 6 6 4 4 4 2 2 5 1 13 10 6 6 8 8 9 9 10 10 10 9 9 8 9 9 8 9
2 1 2 1 1 1 2 1 1 2 2 2 1 1 2 1 1 1 5 2 4 3 2 4 4 5 3 4 3 4 3 7 7 8 4 3 1 0 5 6 6 8 7 4 6 4 4 5 3 8 7 6 5 4 3 5 9 4 7 7 11 12 8 10 5 1 2 7 4 3 10 9 5 6 7 8 8 8 8 8 8 8 9 9 8 9 10 11
1 2 1 2 2 3 2 6 7 6 6 0 3 1 1 2 3 1 3 2 1 5 3 5 8 5 7 2 2 4 3 5 4 3 2 3 1 4 5 7 5 6 6 2 4 4 4 3 1 6 9 10 9 11 13 13 10 8 10 10 11 11 16 12 6 5 1 2 8 10 10 9 4 5 7 8 8 8 8 9 8 7 7 8 10 12 12 12
2 1 2 1 0 2 5 4 0 4 5 4 2 1 3 2 2 1 1 3 5 4 3 3 6 8 7 6 6 2 1 4 3 2 1 1 2 1 3 2 3 6 4 2 3 1 5 3 5 11 12 9 7 9 11 15 9 13 11 10 9 11 11 11 11 12 11 10 11 14 13 10 5 5 7 7 6 7 7 6 6 8 8 10 11 11 11 11
1 2 3 4 1 3 1 1 1 0 3 5 3 2 1 0 2 1 2 2 1 2 2 6 5 9 8 9 9 6 2 4 5 3 1 3 2 2 1 2 1 3 4 2 1 3 5 0 4 4 5 4 5 9 12 13 14 13 11 9 6 6 10 10 9 8 11 13 12 13 13 9 4 5 6 6 6 4 6 9 9 8 8 9 9 10 10 11
2 2 1 3 4 4 2 1 1 2 2 2 2 1 3 3 1 0 3 2 2 2 3 5 7 9 6 8 10 7 3 5 5 4 2 3 2 1 2 2 2 1 3 1 2 3 6 5 1 4 6 2 2 10 11 15 15 15 12 12 10 7 8 7 6 4 3 9 10 10 7 4 4 5 6 6 7 8 9 8 7 7 9 9 9 10 10 10
3 2 0 2 0 4 2 2 0 4 2 3 3 1 2 4 3 4 4 6 7 4 4 8 9 11 4 9 6 2 2 3 2 1 2 1 1 1 0 2 4 2 2 1 0 2 1 4 5 4 8 5 6 8 9 6 6 7 7 8 7 9 8 8 10 11 6 1 4 5 4 4 6 4 7 7 8 9 10 9 7 8 9 9 9 9 9 9
Wind_Direction
317 318 322 321 321 320 322 324 324 323 324 325 326 325 325 324 323 321 322 324 325 327 327 327 329 329 331 332 334 334 338 329 317 305 227 242 185 222 185 217 206 199 197 169 230 106 150 123 184 262 23 90 254 173 226 195 174 109 206 189 250 215 256 224 218 243 290 88 313 24 327 90 33 330 323 54 47 68 40 38 358 33 29 98 66 121 130 133
317 317 320 318 317 320 321 323 322 323 324 325 326 326 326 325 323 322 324 324 327 327 328 329 328 331 331 332 335 337 336 303 297 273 241 201 191 210 219 231 225 168 156 224 182 186 142 191 213 145 143 246 221 224 164 249 154 166 200 152 238 191 228 144 284 309 288 331 291 324 76 75 111 260 342 67 1 96 62 24 32 66 58 72 93 113 124 120
316 317 318 320 318 317 320 320 321 323 324 324 325 328 327 324 324 324 324 324 325 329 329 330 330 330 331 333 331 338 333 320 280 272 271 226 218 202 202 209 177 158 166 175 208 181 188 186 177 138 186 208 275 229 193 261 149 221 161 233 240 213 266 276 224 270 271 195 60 6 331 70 308 279 295 99 132 123 137 125 25 101 112 110 115 118 123 116
314 316 318 318 316 316 317 320 320 321 322 323 324 325 326 325 324 324 324 324 324 328 331 330 328 330 330 329 331 325 8 279 291 256 270 331 204 199 177 168 168 173 182 189 169 183 235 329 152 161 152 194 281 205 245 245 163 261 141 221 232 216 256 271 225 265 222 144 150 304 325 26 348 300 66 162 71 120 257 210 158 171 151 138 136 135 135 129
317 314 315 316 315 316 316 318 319 320 320 322 321 322 323 324 325 325 325 324 325 327 329 327 329 328 329 327 320 326 59 33 262 248 282 318 199 180 167 162 169 176 181 164 128 194 319 43 62 196 215 233 224 331 243 251 212 306 215 225 209 262 274 266 258 255 259 14 84 11 34 300 299 12 355 338 248 210 200 220 199 156 147 144 147 151 143 146
315 313 313 315 314 315 315 317 317 318 319 320 320 320 320 322 323 324 323 323 324 324 325 329 327 329 326 321 308 243 79 228 304 303 18 4 141 158 165 166 169 161 152 125 160 149 185 254 167 205 202 211 212 185 258 219 182 238 269 257 230 218 222 253 260 227 205 90 116 43 248 11 31 317 284 294 282 246 217 182 180 162 158 148 144 147 150 157
313 311 311 314 312 312 314 314 316 317 318 318 317 317 318 319 320 320 322 322 321 322 323 325 327 326 328 321 264 98 108 272 324 246 95 64 110 149 146 143 138 138 150 139 186 161 191 189 175 211 208 218 242 208 239 237 208 213 247 229 245 226 230 261 253 213 195 134 167 198 149 140 355 355 267 294 248 243 197 151 130 132 134 141 149 162 163 169
312 313 310 311 311 311 313 316 315 315 316 316 315 315 316 317 318 319 320 320 319 319 321 322 323 322 334 334 41 27 100 252 250 235 138 108 98 108 119 116 147 146 162 185 175 193 150 197 207 173 212 193 208 184 244 226 244 220 241 234 243 219 222 232 206 219 198 199 191 137 149 238 182 209 352 271 251 168 113 115 125 134 140 148 151 162 162 168
309 308 310 310 310 311 312 314 315 315 315 316 314 314 314 315 316 317 316 318 318 316 317 319 320 316 317 303 117 17 256 232 233 158 141 135 131 122 134 142 190 160 181 186 190 185 159 232 210 195 222 213 247 260 284 276 305 222 223 228 238 235 241 225 222 208 221 216 170 110 190 264 249 179 244 240 258 150 127 120 132 135 148 159 164 163 166 174
309 310 309 309 310 311 311 312 313 314 314 312 314 313 314 314 314 314 315 314 314 313 314 316 312 326 333 108 62 88 260 225 224 166 156 140 137 148 201 192 169 172 160 202 185 190 205 218 190 202 219 269 230 244 240 228 237 245 271 240 242 246 248 263 216 274 210 224 202 176 199 248 278 128 278 284 183 137 129 133 140 151 157 157 154 167 174 170
312 309 309 309 313 311 311 312 312 312 312 312 312 313 312 313 312 312 312 310 309 309 309 309 310 320 253 267 117 214 259 351 38 109 155 145 143 161 199 189 182 178 185 181 201 202 221 240 250 316 262 220 339 286 185 215 340 305 267 280 294 283 274 261 280 264 259 315 164 123 215 234 272 140 230 254 184 151 147 153 159 166 160 161 163 174 182 177
313 308 307 308 309 310 311 311 312 313 312 311 312 311 312 310 309 310 307 306 305 305 301 297 300 253 251 88 185 225 272 79 62 86 89 149 168 200 191 182 183 186 174 183 212 218 215 223 228 210 211 341 292 320 280 283 335 261 259 268 279 351 340 297 212 236 131 259 171 136 36 306 292 230 234 236 149 159 155 164 164 172 170 167 171 177 179 183
313 312 309 308 307 310 309 310 311 312 311 309 310 310 310 308 307 305 303 301 301 298 297 286 273 247 242 344 226 241 283 297 309 320 323 220 291 224 195 184 196 203 192 180 208 225 220 233 206 226 224 140 207 173 271 312 270 280 229 205 332 357 336 271 260 243 87 237 149 101 300 262 251 243 257 247 143 159 156 160 180 180 174 179 179 185 188 168
311 309 309 310 308 307 309 308 311 312 311 310 309 309 308 307 303 300 296 293 295 293 285 275 257 249 150 242 273 237 239 245 275 286 257 224 228 241 206 219 205 213 227 234 267 270 266 259 206 214 196 179 259 270 339 336 335 5 277 55 191 24 268 266 182 188 230 170 138 107 203 275 261 271 266 268 172 160 170 181 186 178 179 185 185 191 191 183
312 309 306 306 307 306 308 310 310 312 311 310 309 309 308 304 300 295 292 293 284 279 268 267 231 172 61 267 268 263 249 234 241 229 224 210 205 250 209 214 207 216 214 214 226 246 237 254 107 91 233 226 51 27 325 2 325 304 37 295 330 144 271 318 278 187 214 330 148 134 236 246 268 265 261 249 225 155 179 183 187 181 184 183 185 193 199 181
309 307 308 309 307 307 309 310 310 312 311 311 310 308 306 300 295 290 286 282 276 266 249 234 192 198 14 291 257 314 302 181 223 211 213 202 203 207 207 204 206 216 219 255 241 251 269 161 115 192 357 11 45 84 351 15 335 343 128 263 248 185 252 357 265 207 206 178 186 170 221 314 299 251 251 259 219 173 171 184 188 186 188 175 179 186 182 171
311 310 308 308 308 307 308 309 310 311 312 312 313 309 304 294 289 284 282 276 269 226 223 224 145 233 112 236 324 293 238 223 220 144 183 200 198 199 194 206 213 216 208 237 253 233 307 110 276 314 35 136 165 100 56 346 308 311 328 212 217 204 283 244 300 303 221 171 220 209 209 240 243 278 292 320 282 234 166 181 184 185 184 185 180 184 185 184
310 307 305 306 305 307 308 308 310 312 313 317 318 313 302 293 286 277 281 251 213 232 229 268 202 162 275 316 299 227 150 175 196 175 164 192 194 194 189 201 221 180 175 221 330 190 289 40 58 192 5 64 125 106 136 217 194 222 275 339 319 323 224 238 312 278 136 210 185 198 206 247 272 276 315 294 323 273 177 169 176 180 186 181 186 188 191 192
309 310 308 307 306 306 308 309 309 313 316 321 318 306 293 285 279 131 236 153 155 178 230 212 152 147 207 207 232 325 280 211 74 138 194 183 188 181 213 180 153 132 189 132 288 190 337 52 25 62 225 195 207 172 166 215 181 225 140 191 203 272 290 290 256 270 174 177 175 177 199 222 251 278 321 325 57 70 153 161 179 183 175 182 186 196 198 203
309 309 309 309 308 308 308 309 309 313 321 322 341 334 5 41 64 55 263 237 247 218 258 168 207 292 313 273 177 212 252 270 181 217 201 201 149 175 223 187 188 121 106 181 221 236 130 162 184 207 218 214 215 180 190 224 221 252 323 20 282 289 266 255 263 272 188 146 186 184 186 199 244 251 282 272 4 115 98 236 184 173 173 186 203 206 209 213
306 308 309 309 308 307 308 307 308 312 319 327 327 356 200 208 139 220 187 225 224 234 247 211 195 214 241 317 301 351 11 299 215 202 215 177 144 131 214 172 140 192 203 171 155 260 95 188 234 218 213 199 210 203 214 255 265 238 261 303 294 282 284 273 286 301 247 140 226 197 169 216 254 293 252 203 76 3 147 157 201 201 190 195 199 207 211 218
309 306 307 308 308 308 307 306 309 309 312 305 310 263 282 263 210 55 327 283 211 227 239 245 202 244 258 261 267 309 292 270 246 223 227 162 182 170 224 172 162 196 193 154 85 69 155 198 232 224 211 206 223 207 203 202 242 251 219 242 264 269 257 280 292 340 5 84 215 179 175 226 223 230 298 280 140 215 206 166 186 188 204 206 207 213 218 216
307 309 308 309 309 308 308 306 305 306 295 205 207 204 245 241 295 344 334 244 275 201 208 216 220 232 252 263 265 184 240 244 214 209 201 171 135 193 166 170 182 178 177 160 164 144 200 261 235 225 190 194 245 233 228 255 245 232 252 165 242 254 44 297 305 356 349 82 296 189 184 279 309 316 303 268 266 233 188 233 201 172 187 204 208 203 207 216
310 309 310 308 308 309 307 309 306 295 225 219 221 218 243 287 305 344 357 245 295 242 202 201 194 208 233 223 235 176 208 234 210 200 198 157 169 146 160 178 161 150 198 182 174 177 218 237 219 205 199 183 218 242 217 212 266 250 205 183 216 273 228 178 270 348 323 351 100 80 42 339 334 314 312 305 6 350 340 355 94 219 194 199 208 207 201 199
312 309 307 306 309 310 312 309 288 238 278 219 238 245 253 263 271 254 331 315 280 272 202 217 166 212 227 195 274 273 200 226 222 171 176 172 156 111 216 176 114 202 195 196 184 215 259 249 182 180 219 208 203 245 228 169 228 271 227 183 191 208 242 281 310 37 27 340 334 137 27 286 301 321 284 307 330 341 358 19 12 335 254 290 224 212 222 304
309 309 306 307 310 316 311 289 237 332 311 250 240 284 303 272 237 207 160 66 308 259 105 217 143 240 143 218 165 183 216 228 199 175 167 184 156 175 141 227 136 196 211 179 190 205 230 221 185 210 205 219 216 219 228 151 196 181 250 200 190 216 241 302 323 65 14 139 290 55 134 266 331 322 291 281 10 21 24 34 26 11 327 216 264 7 29 55
308 306 306 309 313 324 338 250 359 313 291 253 39 334 321 316 244 177 88 301 315 208 168 108 162 291 163 176 165 132 163 238 155 131 180 155 174 149 145 213 171 207 182 165 146 250 195 194 208 215 206 216 219 236 226 162 145 211 238 165 109 343 262 270 65 120 215 273 309 15 102 149 331 296 263 11 66 33 25 22 18 16 28 21 20 33 63 108
306 304 305 307 310 313 285 297 314 301 248 308 333 324 309 301 298 68 105 139 265 168 140 214 230 75 233 160 156 180 203 172 162 201 187 173 162 161 150 182 181 195 190 157 197 255 173 223 196 200 202 207 209 220 213 160 156 210 239 184 182 215 238 271 286 176 181 109 305 316 340 72 277 270 318 358 75 38 33 21 20 25 30 35 33 26 38 62
304 304 304 304 308 305 283 243 270 262 248 331 325 305 316 306 329 115 165 137 222 121 327 113 24 130 235 134 163 200 227 141 187 176 150 157 184 128 196 205 195 194 214 164 216 275 256 207 212 193 160 197 216 225 200 167 163 252 182 147 143 125 64 70 125 90 343 64 281 275 291 120 284 306 345 344 85 76 54 12 16 28 37 39 43 42 48 58
302 303 307 310 316 299 299 222 229 246 311 316 309 313 306 322 47 82 70 259 245 145 197 114 183 180 173 153 183 192 211 184 172 126 154 173 203 152 252 168 191 204 266 258 233 226 244 265 175 184 187 198 200 202 168 168 179 188 114 97 44 31 35 12 63 82 48 40 264 240 284 124 60 314 340 23 329 333 27 29 22 27 34 34 35 46 52 58
303 303 306 310 294 304 317 275 252 256 302 321 318 302 293 33 127 125 138 239 307 85 81 151 184 144 161 168 173 201 210 184 49 140 137 171 194 193 332 159 102 52 53 351 290 285 281 277 273 230 197 181 176 182 180 171 143 105 128 173 15 328 15 35 338 39 98 287 261 273 297 85 81 318 3 27 21 30 35 39 23 24 31 36 31 25 37 48
307 305 300 294 275 277 255 243 61 359 344 326 323 344 69 135 348 180 191 6 63 216 178 194 211 167 174 171 145 169 194 139 153 161 152 175 171 188 207 188 175 185 254 240 255 337 303 266 226 268 225 152 155 109 315 97 89 87 79 58 128 260 47 261 23 300 143 187 254 242 212 45 57 107 49 57 50 44 46 47 23 16 20 31 38 33 24 32
304 301 298 287 275 249 245 257 300 324 324 325 327 51 80 116 191 243 291 310 239 127 229 171 171 172 169 153 195 188 178 199 186 212 159 165 143 202 221 187 183 141 182 240 222 6 277 276 245 251 257 273 125 130 176 119 37 102 132 134 120 109 63 174 279 167 321 294 257 175 135 118 196 76 28 70 68 73 70 56 43 39 33 28 28 31 28 23
303 302 295 266 250 235 244 247 261 317 328 315 76 57 36 197 241 205 210 262 276 319 335 221 161 143 156 173 199 158 170 222 172 168 158 155 145 182 260 264 152 81 134 212 160 197 243 336 302 149 239 200 129 153 174 171 163 182 145 139 172 143 155 189 183 167 209 212 289 297 95 222 126 38 38 71 83 78 70 65 53 54 45 42 40 34 26 21
305 296 275 272 251 241 234 231 227 249 314 335 63 112 166 223 256 158 270 276 253 234 251 180 178 153 175 195 195 181 158 209 202 149 156 139 191 177 191 227 219 127 118 133 257 89 195 202 253 218 199 172 156 189 133 101 99 241 131 73 86 214 140 143 201 143 206 162 360 11 143 10 97 116 84 92 75 65 66 75 65 60 56 56 52 48 41 32
303 279 265 258 224 238 203 203 182 181 208 80 107 193 228 208 200 276 255 259 261 278 275 195 156 158 175 231 209 198 219 142 187 119 158 173 180 184 203 198 195 182 137 166 203 184 132 295 259 266 143 182 179 148 183 124 171 261 96 150 214 168 127 133 28 86 104 43 254 175 66 41 75 86 38 16 42 43 50 57 58 52 46 52 57 51 44 38
305 313 288 239 223 191 148 158 157 161 188 107 130 229 227 280 242 268 272 306 284 286 344 124 168 119 167 192 203 197 190 152 192 123 182 135 123 292 201 238 193 167 184 152 265 186 140 238 295 115 247 258 188 169 159 165 142 84 135 233 61 99 105 131 193 354 107 155 250 106 145 141 44 241 4 9 28 26 41 54 63 56 53 53 49 46 42 39
316 301 274 257 233 133 133 148 143 165 115 94 186 261 276 264 290 276 285 297 299 336 55 92 76 74 167 136 244 198 168 166 189 163 166 156 175 311 20 332 323 241 207 180 160 274 160 285 299 231 213 204 69 70 27 4 101 152 185 190 122 232 235 317 104 151 106 184 238 32 35 82 45 273 348 27 29 27 44 58 57 49 44 48 49 47 43 39
292 296 313 247 159 131 137 149 142 128 73 92 280 263 262 274 294 269 300 281 267 354 70 25 114 353 104 46 277 253 164 170 170 180 132 163 99 323 102 210 13 329 78 154 166 258 51 145 289 321 49 285 101 99 199 243 342 298 53 107 239 106 151 140 199 174 122 223 91 317 62 355 337 316 26 40 47 33 60 66 64 57 50 51 53 50 46 39
266 286 243 12 125 126 136 149 117 67 85 186 216 248 305 301 286 284 253 132 6 71 25 95 29 54 23 30 289 340 323 152 167 203 101 328 118 270 14 346 96 4 29 107 143 163 280 117 219 274 301 59 68 165 197 180 189 190 191 275 194 193 210 120 97 130 172 178 172 151 70 283 10 7 36 56 46 40 62 73 68 61 56 56 54 49 49 46
218 299 312 49 130 127 131 122 87 155 175 258 245 286 290 275 307 290 296 79 114 218 136 101 85 70 221 16 354 357 29 40 66 48 73 63 95 94 349 347 289 120 48 30 59 19 82 84 205 305 25 29 20 13 248 188 151 135 147 49 260 275 146 163 250 353 98 117 188 121 186 109 28 15 30 34 27 36 49 75 73 63 53 48 46 44 42 41
277 129 68 66 275 137 127 111 263 179 230 228 221 227 270 329 288 280 317 309 94 25 50 96 356 92 47 39 271 344 59 44 34 85 17 108 19 101 307 354 19 32 109 112 162 243 142 158 100 106 170 127 83 73 51 53 83 84 78 40 29 132 99 94 172 266 38 43 94 111 121 174 359 57 57 46 44 39 21 28 69 61 51 44 41 40 37 35
209 270 219 167 201 215 89 87 229 188 242 238 261 276 265 260 251 301 338 340 24 44 30 56 118 73 37 53 338 33 40 66 31 92 156 83 57 10 312 47 130 47 68 347 23 295 84 72 54 295 320 290 80 83 59 28 19 44 26 22 34 38 287 167 171 185 123 329 66 37 70 139 110 99 73 63 48 41 35 27 45 60 50 40 41 34 27 23
323 44 320 285 175 179 78 157 199 243 266 272 247 261 265 257 275 354 360 350 17 357 78 53 16 46 106 49 33 34 20 96 15 96 83 68 65 339 25 51 57 67 85 227 129 258 70 312 121 81 11 345 346 340 46 11 40 64 28 341 345 344 49 113 86 42 81 298 165 112 153 144 145 78 72 59 50 41 33 33 32 42 40 36 42 44 37 30
307 197 231 296 343 124 169 204 134 194 269 296 275 272 299 295 173 124 60 13 8 52 66 22 127 86 47 57 70 51 35 106 122 15 107 72 109 331 355 52 53 69 37 167 158 89 86 235 94 137 164 171 192 178 236 343 350 309 19 3 16 23 352 21 281 4 94 331 86 115 114 112 105 76 61 52 44 40 35 30 37 44 37 31 40 41 36 32
115 67 291 292 315 155 269 261 205 191 272 279 335 270 227 288 340 44 47 33 43 32 89 170 0 69 48 46 42 54 53 28 85 266 46 44 352 16 324 33 54 61 9 33 34 75 104 42 85 156 145 161 178 158 210 104 56 61 19 34 5 7 18 101 100 74 155 156 64 39 141 133 97 54 53 49 45 39 30 24 26 23 23 31 39 39 36 37
351 134 153 114 54 258 238 301 252 188 218 215 256 276 319 237 238 352 9 76 348 33 44 48 43 45 2 80 112 71 41 68 30 71 36 90 11 251 2 46 42 48 49 34 17 79 65 63 13 83 76 105 112 91 92 101 99 69 71 35 35 38 36 47 72 93 162 93 61 89 121 111 99 68 53 45 48 49 41 32 24 22 24 23 28 37 36 38
153 266 5 210 132 219 197 276 214 230 247 305 254 297 316 13 41 64 333 40 24 37 77 340 27 47 70 107 117 81 63 68 32 67 29 21 49 352 37 9 49 356 37 15 16 99 121 111 287 77 74 84 86 100 99 78 72 81 69 58 52 47 50 56 35 325 154 157 165 132 110 99 87 66 63 51 52 51 40 34 30 29 25 24 29 33 32 33
249 263 267 279 103 247 174 209 231 214 253 185 262 308 10 65 85 170 147 338 26 353 53 72 17 26 29 65 91 103 53 74 357 343 111 34 62 55 30 346 7 14 39 47 29 75 88 34 63 92 88 73 74 83 88 96 86 59 45 53 54 57 58 61 57 47 65 71 94 104 94 94 84 60 54 52 52 58 52 41 38 39 33 31 33 32 33 31
287 49 325 346 296 265 275 289 270 100 299 261 196 281 110 264 103 66 40 97 27 320 57 74 55 43 43 61 67 68 355 137 158 117 336 111 19 77 129 187 209 333 44 42 61 346 103 299 135 96 81 51 73 85 73 79 80 67 39 38 49 54 59 48 57 45 72 80 83 91 95 87 63 66 73 55 53 62 59 47 35 32 32 36 36 35 32 31
275 269 320 317 335 294 320 163 238 192 205 306 84 307 51 345 70 89 55 49 145 126 61 127 97 62 36 58 67 76 75 97 84 96 134 118 108 213 107 290 131 105 354 15 31 335 69 171 142 98 97 98 270 99 98 90 81 69 38 23 25 32 46 14 50 7 58 122 114 95 83 107 112 89 79 67 61 53 49 42 36 29 29 32 34 31 29 26
318 284 223 138 253 276 272 286 192 103 185 230 141 357 83 25 40 70 67 3 38 79 137 119 103 94 44 61 49 53 97 94 79 92 97 125 144 312 89 236 162 139 168 71 172 72 126 121 110 124 103 148 197 139 129 102 66 37 13 344 46 76 98 76 51 43 29 37 92 114 127 112 130 127 94 63 58 59 54 37 25 26 29 33 32 30 27 24